When you browse on this site, cookies collect data to enhance your experience and personalize the content and advertising you see.
Visit our Privacy Policy to learn more. By continuing to use the site, you agree to this use of cookies and data.

Stündliche Wetter Barisal

Heute, 10 August, Montag

Zeit Temperatur Niederschläge Wind Luftdruck Luftfeuchtigkeit
00:00 +30°C° 0 mm 2 m/S 751 mmHg 86%
01:00 +30°C° 0 mm 2 m/S 750 mmHg 86%
02:00 +30°C° 0 mm 2 m/S 750 mmHg 87%
03:00 +30°C° 0 mm 3 m/S 750 mmHg 87%
04:00 +30°C° 0 mm 3 m/S 750 mmHg 87%
05:00 +30°C° 0 mm 3 m/S 750 mmHg 88%
06:00 +30°C° 0 mm 3 m/S 750 mmHg 88%
07:00 +32°C° 0 mm 4 m/S 751 mmHg 83%
08:00 +33°C° 0 mm 5 m/S 751 mmHg 78%
09:00 +34°C° 0 mm 6 m/S 751 mmHg 73%
10:00 +34°C° 0.8 mm 6 m/S 751 mmHg 72%
11:00 +34°C° 0.8 mm 7 m/S 751 mmHg 72%
12:00 +35°C° 0.8 mm 7 m/S 750 mmHg 71%
13:00 +35°C° 1 mm 7 m/S 750 mmHg 71%
14:00 +35°C° 1 mm 7 m/S 749 mmHg 70%
15:00 +35°C° 1 mm 6 m/S 749 mmHg 70%
16:00 +34°C° 0.2 mm 6 m/S 749 mmHg 72%
17:00 +34°C° 0.2 mm 5 m/S 749 mmHg 75%
18:00 +33°C° 0.2 mm 5 m/S 748 mmHg 77%
19:00 +33°C° 0 mm 4 m/S 749 mmHg 79%
20:00 +32°C° 0 mm 4 m/S 750 mmHg 82%
21:00 +31°C° 0 mm 3 m/S 750 mmHg 84%
22:00 +31°C° 0.1 mm 3 m/S 750 mmHg 85%
23:00 +31°C° 0.1 mm 3 m/S 750 mmHg 85%

Morgen, 11 August, Dienstag

Zeit Temperatur Niederschläge Wind Luftdruck Luftfeuchtigkeit
00:00 +31°C° 0.1 mm 3 m/S 750 mmHg 85%
01:00 +30°C° 0.5 mm 3 m/S 750 mmHg 86%
02:00 +30°C° 0.5 mm 3 m/S 749 mmHg 86%
03:00 +30°C° 0.5 mm 3 m/S 749 mmHg 86%
04:00 +30°C° 0.7 mm 3 m/S 749 mmHg 87%
05:00 +30°C° 0.7 mm 3 m/S 749 mmHg 87%
06:00 +30°C° 0.7 mm 3 m/S 749 mmHg 88%
07:00 +30°C° 1.2 mm 3 m/S 750 mmHg 85%
08:00 +31°C° 1.2 mm 3 m/S 750 mmHg 82%
09:00 +31°C° 1.2 mm 3 m/S 751 mmHg 80%
10:00 +31°C° 0.6 mm 3 m/S 751 mmHg 80%
11:00 +31°C° 0.6 mm 3 m/S 750 mmHg 80%
12:00 +31°C° 0.6 mm 3 m/S 750 mmHg 81%
13:00 +31°C° 0.3 mm 3 m/S 750 mmHg 80%
14:00 +31°C° 0.3 mm 3 m/S 749 mmHg 79%
15:00 +33°C° 0.3 mm 3 m/S 749 mmHg 79%
16:00 +31°C° 0.2 mm 3 m/S 749 mmHg 80%
17:00 +31°C° 0.2 mm 3 m/S 749 mmHg 81%
18:00 +31°C° 0.2 mm 3 m/S 749 mmHg 82%
19:00 +31°C° 0 mm 3 m/S 749 mmHg 83%
20:00 +30°C° 0 mm 3 m/S 750 mmHg 85%
21:00 +30°C° 0 mm 3 m/S 751 mmHg 87%
22:00 +30°C° 0.1 mm 3 m/S 751 mmHg 88%
23:00 +30°C° 0.1 mm 3 m/S 750 mmHg 88%

übermorgen, 12 August, Mittwoch

Zeit Temperatur Niederschläge Wind Luftdruck Luftfeuchtigkeit
00:00 +30°C° 0.1 mm 3 m/S 750 mmHg 89%
01:00 +30°C° 0.1 mm 3 m/S 750 mmHg 89%
02:00 +30°C° 0.1 mm 2 m/S 750 mmHg 89%
03:00 +30°C° 0.1 mm 2 m/S 749 mmHg 89%
04:00 +30°C° 0.2 mm 2 m/S 749 mmHg 89%
05:00 +29°C° 0.2 mm 2 m/S 749 mmHg 89%
06:00 +29°C° 0.2 mm 2 m/S 749 mmHg 89%
07:00 +31°C° 0.3 mm 2 m/S 750 mmHg 82%
08:00 +33°C° 0.3 mm 3 m/S 750 mmHg 75%
09:00 +35°C° 0.3 mm 3 m/S 751 mmHg 67%
10:00 +35°C° 0.2 mm 4 m/S 751 mmHg 66%
11:00 +36°C° 0.2 mm 4 m/S 750 mmHg 64%
12:00 +36°C° 0.2 mm 5 m/S 750 mmHg 62%
13:00 +36°C° 0.1 mm 5 m/S 750 mmHg 62%
14:00 +36°C° 0.1 mm 5 m/S 749 mmHg 62%
15:00 +36°C° 0.1 mm 5 m/S 748 mmHg 62%
16:00 +35°C° 0 mm 5 m/S 748 mmHg 65%
17:00 +34°C° 0 mm 5 m/S 748 mmHg 69%
18:00 +34°C° 0 mm 4 m/S 748 mmHg 72%
19:00 +33°C° 0 mm 4 m/S 749 mmHg 75%
20:00 +33°C° 0 mm 4 m/S 750 mmHg 78%
21:00 +32°C° 0 mm 4 m/S 750 mmHg 82%
22:00 +32°C° 0.9 mm 4 m/S 750 mmHg 83%
23:00 +32°C° 0.9 mm 4 m/S 750 mmHg 84%

13 August, Donnerstag

Zeit Temperatur Niederschläge Wind Luftdruck Luftfeuchtigkeit
00:00 +30°C° 0.9 mm 4 m/S 750 mmHg 85%
01:00 +30°C° 1.2 mm 3 m/S 750 mmHg 85%
02:00 +30°C° 1.2 mm 3 m/S 749 mmHg 85%
03:00 +30°C° 1.2 mm 3 m/S 749 mmHg 86%
04:00 +30°C° 0.5 mm 3 m/S 748 mmHg 86%
05:00 +30°C° 0.5 mm 3 m/S 748 mmHg 86%
06:00 +30°C° 0.5 mm 3 m/S 748 mmHg 86%
07:00 +32°C° 0.1 mm 4 m/S 749 mmHg 82%
08:00 +33°C° 0.1 mm 5 m/S 749 mmHg 77%
09:00 +34°C° 0.1 mm 6 m/S 750 mmHg 73%
10:00 +34°C° 0.2 mm 6 m/S 749 mmHg 71%
11:00 +35°C° 0.2 mm 6 m/S 749 mmHg 70%
12:00 +35°C° 0.2 mm 7 m/S 749 mmHg 68%
13:00 +35°C° 0 mm 6 m/S 748 mmHg 68%
14:00 +35°C° 0 mm 6 m/S 747 mmHg 68%
15:00 +35°C° 0 mm 6 m/S 747 mmHg 68%
16:00 +35°C° 0.1 mm 6 m/S 747 mmHg 70%
17:00 +34°C° 0.1 mm 5 m/S 747 mmHg 72%
18:00 +33°C° 0.1 mm 4 m/S 747 mmHg 74%
19:00 +33°C° 0 mm 4 m/S 747 mmHg 76%
20:00 +32°C° 0 mm 4 m/S 748 mmHg 79%
21:00 +32°C° 0 mm 4 m/S 749 mmHg 81%
22:00 +32°C° 0 mm 4 m/S 749 mmHg 82%
23:00 +30°C° 0 mm 4 m/S 749 mmHg 83%

14 August, Freitag

Zeit Temperatur Niederschläge Wind Luftdruck Luftfeuchtigkeit
00:00 +30°C° 0 mm 3 m/S 749 mmHg 84%
01:00 +30°C° 0.4 mm 3 m/S 748 mmHg 84%
02:00 +30°C° 0.4 mm 3 m/S 747 mmHg 85%
03:00 +30°C° 0.4 mm 3 m/S 747 mmHg 85%
04:00 +30°C° 0.1 mm 3 m/S 747 mmHg 85%
05:00 +30°C° 0.1 mm 3 m/S 747 mmHg 85%
06:00 +30°C° 0.1 mm 3 m/S 747 mmHg 85%
07:00 +31°C° 0 mm 3 m/S 748 mmHg 79%
08:00 +33°C° 0 mm 4 m/S 748 mmHg 72%
09:00 +35°C° 0 mm 4 m/S 748 mmHg 66%
10:00 +35°C° 0 mm 5 m/S 748 mmHg 64%
11:00 +36°C° 0 mm 6 m/S 748 mmHg 63%
12:00 +36°C° 0 mm 6 m/S 748 mmHg 61%
13:00 +36°C° 0 mm 6 m/S 747 mmHg 61%
14:00 +36°C° 0 mm 6 m/S 747 mmHg 61%
15:00 +36°C° 0 mm 7 m/S 746 mmHg 61%
16:00 +35°C° 0 mm 6 m/S 746 mmHg 64%
17:00 +34°C° 0 mm 6 m/S 746 mmHg 67%
18:00 +34°C° 0 mm 5 m/S 746 mmHg 70%
19:00 +33°C° 0 mm 5 m/S 747 mmHg 73%
20:00 +33°C° 0 mm 5 m/S 748 mmHg 77%
21:00 +32°C° 0 mm 5 m/S 748 mmHg 80%
22:00 +32°C° 0.3 mm 4 m/S 748 mmHg 81%
23:00 +32°C° 0.3 mm 4 m/S 748 mmHg 82%

15 August, Samstag

Zeit Temperatur Niederschläge Wind Luftdruck Luftfeuchtigkeit
00:00 +30°C° 0.3 mm 4 m/S 748 mmHg 83%
01:00 +30°C° 0.6 mm 3 m/S 748 mmHg 83%
02:00 +30°C° 0.6 mm 3 m/S 747 mmHg 84%
03:00 +30°C° 0.6 mm 2 m/S 747 mmHg 85%
04:00 +30°C° 0.6 mm 2 m/S 747 mmHg 85%
05:00 +30°C° 0.6 mm 2 m/S 747 mmHg 85%
06:00 +30°C° 0.6 mm 2 m/S 747 mmHg 86%
07:00 +31°C° 0.8 mm 3 m/S 748 mmHg 81%
08:00 +33°C° 0.8 mm 4 m/S 748 mmHg 76%
09:00 +34°C° 0.8 mm 4 m/S 748 mmHg 72%
10:00 +34°C° 0.6 mm 5 m/S 748 mmHg 70%
11:00 +35°C° 0.6 mm 5 m/S 748 mmHg 69%
12:00 +35°C° 0.6 mm 6 m/S 747 mmHg 68%
13:00 +35°C° 0.8 mm 6 m/S 747 mmHg 68%
14:00 +35°C° 0.8 mm 7 m/S 746 mmHg 67%
15:00 +35°C° 0.8 mm 7 m/S 746 mmHg 66%
16:00 +34°C° 0 mm 7 m/S 746 mmHg 69%
17:00 +34°C° 0 mm 7 m/S 746 mmHg 72%
18:00 +33°C° 0 mm 6 m/S 747 mmHg 74%
19:00 +33°C° 0 mm 6 m/S 747 mmHg 77%
20:00 +32°C° 0 mm 5 m/S 748 mmHg 80%
21:00 +32°C° 0 mm 5 m/S 749 mmHg 83%
22:00 +30°C° 0.5 mm 4 m/S 749 mmHg 84%
23:00 +30°C° 0.5 mm 4 m/S 749 mmHg 84%
Mehr zeigen